Time,TemperatureF,DewpointF,PressureIn,WindDirection,WindDirectionDegrees,WindSpeedMPH,WindSpeedGustMPH,Humidity,HourlyPrecipIn,Conditions,Clouds,dailyrainin,SolarRadiationWatts/m^2,SoftwareType,DateUTC
2013-02-13 00:00:00,42.0,41.0,29.84,ENE,58,2.0,-999.0,96,-99.99,,,-99.99,0.000000,,2013-02-13 06:00:00,
2013-02-13 00:52:00,42.0,41.0,29.84,ENE,58,2.0,-999.0,96,-99.99,,,-99.99,0.000000,,2013-02-13 06:52:00,
2013-02-13 02:00:00,42.0,42.0,29.82,NW,321,0.0,-999.0,98,-99.99,,,-99.99,0.000000,,2013-02-13 08:00:00,
2013-02-13 02:52:00,42.0,42.0,29.82,NW,321,0.0,-999.0,98,-99.99,,,-99.99,0.000000,,2013-02-13 08:52:00,
2013-02-13 03:00:00,43.0,42.0,29.81,West,272,1.0,-999.0,99,-99.99,,,-99.99,0.000000,,2013-02-13 09:00:00,
2013-02-13 03:52:00,43.0,42.0,29.81,West,272,1.0,-999.0,99,-99.99,,,-99.99,0.000000,,2013-02-13 09:52:00,
2013-02-13 04:00:00,43.0,43.0,29.81,SW,215,1.0,-999.0,99,-99.99,,,-99.99,0.000000,,2013-02-13 10:00:00,
2013-02-13 04:52:00,43.0,43.0,29.81,SW,215,1.0,-999.0,99,-99.99,,,-99.99,0.000000,,2013-02-13 10:52:00,
2013-02-13 05:00:00,44.0,44.0,29.82,SSW,202,2.0,-999.0,99,-99.99,,,-99.99,0.000000,,2013-02-13 11:00:00,
2013-02-13 05:52:00,44.0,44.0,29.82,SSW,202,2.0,-999.0,99,-99.99,,,-99.99,0.000000,,2013-02-13 11:52:00,
2013-02-13 06:00:00,44.0,44.0,29.83,SW,218,5.0,-999.0,98,-99.99,,,-99.99,0.000000,,2013-02-13 12:00:00,
2013-02-13 06:52:00,44.0,44.0,29.83,SW,218,5.0,-999.0,98,-99.99,,,-99.99,0.000000,,2013-02-13 12:52:00,
2013-02-13 07:00:00,44.0,43.0,29.86,WSW,244,4.0,-999.0,97,-99.99,,,-99.99,1.200000,,2013-02-13 13:00:00,
2013-02-13 07:52:00,44.0,43.0,29.86,WSW,244,4.0,-999.0,97,-99.99,,,-99.99,1.200000,,2013-02-13 13:52:00,
2013-02-13 08:00:00,44.0,41.0,29.87,WSW,250,5.0,-999.0,90,-99.99,,,-99.99,14.370000,,2013-02-13 14:00:00,
2013-02-13 08:52:00,44.0,41.0,29.87,WSW,250,5.0,-999.0,90,-99.99,,,-99.99,14.370000,,2013-02-13 14:52:00,
2013-02-13 09:00:00,44.0,41.0,29.90,WSW,257,5.0,-999.0,87,-99.99,,,-99.99,51.049999,,2013-02-13 15:00:00,
2013-02-13 09:52:00,44.0,41.0,29.90,WSW,257,5.0,-999.0,87,-99.99,,,-99.99,51.049999,,2013-02-13 15:52:00,
2013-02-13 10:00:00,46.0,41.0,29.91,West,270,5.0,-999.0,82,-99.99,,,-99.99,174.399994,,2013-02-13 16:00:00,
2013-02-13 10:52:00,46.0,41.0,29.91,West,270,5.0,-999.0,82,-99.99,,,-99.99,174.399994,,2013-02-13 16:52:00,
2013-02-13 11:00:00,44.0,40.0,29.92,West,278,6.0,-999.0,83,-99.99,,,-99.99,110.699997,,2013-02-13 17:00:00,
2013-02-13 11:52:00,44.0,40.0,29.92,West,278,6.0,-999.0,83,-99.99,,,-99.99,110.699997,,2013-02-13 17:52:00,
2013-02-13 12:00:00,45.0,38.0,29.94,WNW,291,7.0,-999.0,78,-99.99,,,-99.99,300.200012,,2013-02-13 18:00:00,
2013-02-13 12:52:00,45.0,38.0,29.94,WNW,291,7.0,-999.0,78,-99.99,,,-99.99,300.200012,,2013-02-13 18:52:00,
2013-02-13 13:00:00,43.0,37.0,29.93,NW,305,6.0,-999.0,77,-99.99,,,-99.99,108.199997,,2013-02-13 19:00:00,
2013-02-13 13:52:00,43.0,37.0,29.93,NW,305,6.0,-999.0,77,-99.99,,,-99.99,108.199997,,2013-02-13 19:52:00,
2013-02-13 14:00:00,43.0,36.0,29.95,NW,317,7.0,-999.0,76,-99.99,,,-99.99,105.800003,,2013-02-13 20:00:00,
2013-02-13 14:52:00,43.0,36.0,29.95,NW,317,7.0,-999.0,76,-99.99,,,-99.99,105.800003,,2013-02-13 20:52:00,
2013-02-13 18:00:00,39.0,35.0,29.98,West,275,2.0,-999.0,84,-99.99,,,-99.99,5.640000,,2013-02-14 00:00:00,
2013-02-13 18:52:00,39.0,35.0,29.98,West,275,2.0,-999.0,84,-99.99,,,-99.99,5.640000,,2013-02-14 00:52:00,
2013-02-13 21:00:00,39.0,37.0,30.04,West,271,0.0,-999.0,93,-99.99,,,-99.99,0.000000,,2013-02-14 03:00:00,
2013-02-13 21:52:00,39.0,37.0,30.04,West,271,0.0,-999.0,93,-99.99,,,-99.99,0.000000,,2013-02-14 03:52:00,
2013-02-13 22:00:00,40.0,37.0,30.04,WNW,292,0.0,-999.0,90,-99.99,,,-99.99,0.000000,,2013-02-14 04:00:00,
2013-02-13 22:52:00,40.0,37.0,30.04,WNW,292,0.0,-999.0,90,-99.99,,,-99.99,0.000000,,2013-02-14 04:52:00,
2013-02-13 23:00:00,39.0,37.0,30.04,West,279,0.0,-999.0,91,-99.99,,,-99.99,0.000000,,2013-02-14 05:00:00,
2013-02-13 23:52:00,39.0,37.0,30.04,West,279,0.0,-999.0,91,-99.99,,,-99.99,0.000000,,2013-02-14 05:52:00,